Logan, UT

6:17 AM MST on November 15, 2019 (GMT -0700)
Logan-Cache

Weather History for KLGU - August, 2019

Change the Weather History Date:

Monday, August 12, 2019

  Actual Average Record
Temperature  
Mean Temperature 66 °F -  
Max Temperature 82 °F 89 °F 100 °F (1958)
Min Temperature 50 °F 54 °F 42 °F (1980)
Cooling Degree Days 1    
Growing Degree Days 16 (Base 50)    
Moisture  
Dew Point 40 °F    
Average Humidity 44    
Maximum Humidity 77    
Minimum Humidity 17    
Precipitation  
Precipitation 0.00 in - - ()
Sea Level Pressure  
Sea Level Pressure 30.04 in    
Wind  
Wind Speed 3 mph (SW)    
Max Wind Speed 13 mph    
Max Gust Speed -    
Visibility 10 miles    
Events      
Averages and records for this station are not official NWS values.
T = Trace of Precipitation, MM = Missing Value Source: NWS Daily Summary

Daily Weather History Graph

Daily Weather History Graph

Search for Another Location

Airport or City:

Astronomy

Aug. 12, 2019 Rise Set
Actual Time 6:32 AM MDT 8:31 PM MDT
Civil Twilight 6:02 AM MDT 9:01 PM MDT
Nautical Twilight 5:25 AM MDT 9:38 PM MDT
Astronomical Twilight 4:44 AM MDT 10:18 PM MDT
Moon 7:06 PM MDT (8/12) 3:42 AM MDT (8/12)
Length of Visible Light 14h 59m
Length of Day
13h 59m
Waxing Gibbous, 93% of the Moon is Illuminated
Aug 12
Waxing Gibbous
Aug 15
Full
Aug 23
Last Quarter
Aug 30
New
Sep 5
First Quarter

Hourly Weather History & Observations

Time (MDT) Temp. Dew Point Humidity Pressure Visibility Wind Dir Wind Speed Gust Speed Precip Events Conditions
12:51 AM 57.9 °F 44.1 °F 60% 30.00 in 10.0 mi WNW 3.5 mph - N/A   Clear
1:51 AM 57.9 °F 43.0 °F 58% 30.00 in 10.0 mi SSE 6.9 mph - N/A   Clear
2:51 AM 57.0 °F 39.9 °F 53% 30.00 in 10.0 mi Calm Calm - N/A   Clear
3:51 AM 52.0 °F 44.1 °F 74% 30.02 in 10.0 mi SW 3.5 mph - N/A   Clear
4:51 AM 53.1 °F 44.1 °F 71% 30.04 in 10.0 mi Calm Calm - N/A   Clear
5:51 AM 50.0 °F 43.0 °F 77% 30.06 in 10.0 mi Calm Calm - N/A   Clear
6:51 AM 51.1 °F 43.0 °F 74% 30.08 in 10.0 mi Calm Calm - N/A   Clear
7:51 AM 53.1 °F 46.0 °F 77% 30.10 in 10.0 mi Calm Calm - N/A   Clear
8:51 AM 57.9 °F 45.0 °F 62% 30.12 in 10.0 mi Calm Calm - N/A   Clear
9:51 AM 64.0 °F 44.1 °F 48% 30.10 in 10.0 mi Variable 4.6 mph - N/A   Clear
10:51 AM 68.0 °F 46.0 °F 45% 30.10 in 10.0 mi Variable 3.5 mph - N/A   Clear
11:51 AM 72.0 °F 45.0 °F 38% 30.10 in 10.0 mi Calm Calm - N/A   Clear
12:51 PM 75.0 °F 37.9 °F 26% 30.08 in 10.0 mi SSE 4.6 mph - N/A   Clear
1:51 PM 79.0 °F 37.9 °F 23% 30.05 in 10.0 mi Variable 3.5 mph - N/A   Clear
2:51 PM 79.0 °F 35.1 °F 20% 30.04 in 10.0 mi NNW 5.8 mph - N/A   Clear
3:51 PM 82.0 °F 34.0 °F 18% 30.02 in 10.0 mi WSW 12.7 mph - N/A   Clear
4:51 PM 82.0 °F 34.0 °F 18% 30.00 in 10.0 mi SW 8.1 mph - N/A   Clear
5:51 PM 81.0 °F 33.1 °F 18% 30.00 in 10.0 mi SSW 10.4 mph - N/A   Clear
6:51 PM 81.0 °F 32.0 °F 17% 29.99 in 10.0 mi SW 6.9 mph - N/A   Clear
7:51 PM 78.1 °F 37.0 °F 23% 29.99 in 10.0 mi SSW 8.1 mph - N/A   Clear
8:51 PM 73.0 °F 37.9 °F 28% 30.00 in 10.0 mi Calm Calm - N/A   Clear
9:51 PM 68.0 °F 39.0 °F 35% 30.02 in 10.0 mi Calm Calm - N/A   Clear
10:51 PM 63.0 °F 43.0 °F 48% 30.04 in 10.0 mi West 6.9 mph - N/A   Clear
11:51 PM 59.0 °F 42.1 °F 53% 30.05 in 10.0 mi WNW 3.5 mph - N/A   Clear